Flag for Germany Weather past 2 weeks in Biberach an der Riss, Baden-Württemberg, Germany

34 °F


Feels Like: 34 °F
Forecast: 23 / 37 °F
Wind: 2 mph from Northeast

Location: Laupheim Airport

Current Time: Nov 27, 2015 at 2:23:44 AM

Latest Report: Nov 27, 2015 at 1:20 AM

Visibility: 2 mi

Pressure: 30.12 "Hg (28.17 "Hg at 536m altitude)

Humidity: 100%

Dew point: 34 °F

Location of Biberach an der RissLocation

Historic Weather in Biberach an der Riss — Graph


Biberach an der Riss temperature yesterday

Maximum temperature yesterday: 37 °F (at 12:20 PM)
Minimum temperature yesterday: 32 °F (at 3:20 AM)
Average temperature yesterday: 35 °F

Past Weeks' High & Low Weather Summary

High63 °F (Nov 16, 1:20 PM)100% (Nov 12, 1:20 AM)30.45 "Hg (Nov 12, 1:20 AM)
Low21 °F (Nov 24, 5:20 AM)45% (Nov 16, 4:20 PM)29.39 "Hg (Nov 21, 2:20 PM)
Average42 °F80%30.03 "Hg
* Reported Nov 12 1:20 AM — Nov 27 1:20 AM, Biberach an der Riss, Weather by CustomWeather, © 2015

Note: Actual official high and low records may vary slightly from our data, if they occured in-between our weather recording intervals... More about our weather records


Biberach an der Riss weather history for previous 24 hours

Time TempWeatherWind HumidityBarometerVisibility
1:20 AM
Fri, Nov 27
34 °FFog.2 mph100%30.12 "Hg2 mi
12:20 AM34 °FPassing clouds.3 mph100%30.12 "Hg4 mi
11:20 PM
Thu, Nov 26
34 °FPassing clouds.3 mph100%30.12 "Hg4 mi
10:20 PM34 °FPassing clouds.2 mph100%30.12 "Hg4 mi
9:20 PM34 °FPassing clouds.2 mph93%30.09 "Hg5 mi
8:20 PM36 °FLight rain. Passing clouds.5 mph87%30.09 "HgN/A
7:20 PM36 °FPartly cloudy.1 mph93%30.07 "HgN/A
6:20 PM36 °FPartly cloudy.2 mph87%30.07 "HgN/A
5:20 PM36 °FPartly cloudy.1 mph93%30.04 "Hg5 mi
4:20 PM36 °FPartly sunny.2 mph93%30.01 "HgN/A
3:20 PM34 °FBroken clouds.1 mph93%29.98 "HgN/A
3:02 PM34 °FBroken clouds.1 mph93%29.98 "HgN/A
2:49 PM34 °FPartly sunny.3 mph93%29.98 "Hg4 mi
2:20 PM36 °FLight rain. Broken clouds.3 mph87%29.98 "Hg3 mi
1:20 PM37 °FLight rain. Partly sunny.5 mph81%29.95 "HgN/A
12:20 PM37 °FBroken clouds.6 mph87%29.95 "HgN/A
11:20 AM36 °FBroken clouds.3 mph93%29.92 "HgN/A
10:20 AM36 °FPartly sunny.5 mph93%29.92 "Hg4 mi
9:20 AM34 °FPartly sunny.3 mph93%29.89 "Hg4 mi
8:20 AM34 °FFog.2 mph93%29.86 "Hg3 mi
7:20 AM34 °FPassing clouds.2 mph93%29.83 "Hg4 mi
7:02 AM34 °FPartly cloudy.3 mph93%29.83 "Hg4 mi
6:20 AM34 °FPassing clouds.1 mph93%29.83 "Hg4 mi
5:20 AM34 °FPassing clouds.3 mph93%29.80 "Hg4 mi
4:51 AM34 °FPassing clouds.2 mph93%29.80 "Hg4 mi
3:20 AM32 °FIce fog.5 mph100%29.77 "Hg2 mi
2:20 AM34 °FFog.5 mph93%29.77 "Hg2 mi
Weather by CustomWeather, © 2015

See weather overviewHow to use our weather pages